Regional Weather Roundup
Issued by NWS

Home | Current Version | Previous Version | Text Only | Print | Product List | Glossary Off
Versions: 1 2 3 4 5 6 7 8 9 10 11 12 13 14 15 16 17 18 19 20 21 22 23 24 25 26 27 28 29 30 31 32 33 34 35 36 37 38 39 40 41 42 43 44 45 46 47 48 49 50

000
ASUS45 KBOU 270607
RWRCO

WEATHER ROUNDUP FOR COLORADO
NATIONAL WEATHER SERVICE DENVER/BOULDER CO
1200 AM MDT WED JUL 27 2016

NOTE: "FAIR" INDICATES FEW OR NO CLOUDS BELOW 12000 FEET WITH NO
SIGNIFICANT WEATHER AND/OR OBSTRUCTIONS TO VISIBILITY.

COZ001>005-013-030-031-270700-
...NORTHWEST COLORADO...

CITY           SKY/WX    TMP DP  RH WIND       PRES   REMARKS
CRAIG          FAIR      58  45  62 NE3       30.26R
HAYDEN         FAIR      61  39  44 E12       30.28S
MEEKER         FAIR      58  44  60 NE6       30.27R
MOUNT WERNER   NOT AVBL
STEAMBOAT SPGS FAIR      56  40  55 CALM      30.32S
WALDEN         FAIR      45  34  65 CALM      30.43R
$$

COZ006>008-011-270700-
...WEST CENTRAL VALLEYS...

CITY           SKY/WX    TMP DP  RH WIND       PRES   REMARKS
GRAND JUNCTION FAIR      76  43  30 CALM      30.12R
MONTROSE       FAIR      67  42  40 SE6       30.23S
EAGLE          FAIR      61  39  44 E3        30.34S
RIFLE          FAIR      67  42  40 CALM      30.21R
DELTA          FAIR      77  40  25 NE13      30.17R
NUCLA          FAIR      72  37  28 E10       30.25F
$$

COZ017>023-064>068-270700-
...SOUTHWEST COLORADO...

CITY           SKY/WX    TMP DP  RH WIND       PRES   REMARKS
DURANGO        FAIR      61  50  67 N3        30.31S
CORTEZ         FAIR      62  47  57 E3        30.23R
PAGOSA SPRINGS FAIR      59  46  62 W3        30.39F
TELLURIDE      FAIR      59  40  48 SE6       30.50S
WOLF CREEK PAS CLOUDY    46  36  66 NE12      30.72F
$$

COZ009-010-012-014-032>034-037-058>063-270700-
...CENTRAL COLORADO...

CITY           SKY/WX    TMP DP  RH WIND       PRES   REMARKS
ASPEN          FAIR      54  41  61 SW6       30.39S
BUENA VISTA    FAIR      55  37  50 W8        30.42F
COPPER MTN     FAIR      55  25  30 W5        30.72S
BERTHOUD PASS  FAIR      45  32  61 N14       30.75S
COTTONWOOD PAS FAIR      61  32  33 SW14      30.56F
GUNNISON       FAIR      55  39  54 N9        30.42S
KREMMLING      FAIR      50  39  66 CALM      30.41S
LEADVILLE      FAIR      46  32  58 NE5       30.56S
MONARCH PASS   FAIR      50  34  53 E14       30.81S
SALIDA         FAIR      59  43  55 W9        30.47S
SUNLIGHT       FAIR      55  34  44 MISG      30.64S
WILKERSON PASS MOCLDY    52  32  46 W3        30.68F
$$

COZ069>075-270700-
...SAN LUIS VALLEY/SANGRE DE CRISTO MOUNTAINS...

CITY           SKY/WX    TMP DP  RH WIND       PRES   REMARKS
ALAMOSA        MOCLDY    61  47  59 SE3       30.37F
LA VETA PASS   CLOUDY    57  39  51 CALM      30.58S
SAGUACHE       FAIR      61  41  48 NW9       30.40F
$$

COZ035-036-038>040-270700-
...NORTHERN COLORADO FRONT RANGE...

CITY           SKY/WX    TMP DP  RH WIND       PRES   REMARKS
DENVER INTL AP FAIR      68  41  37 S13       30.14F
DMNS CITY PARK   N/A     70  43  37 S3        30.14S
AURORA         PTCLDY    69  41  36 S12       30.17F
FRONT RANGE AP NOT AVBL
ERIE MUNI ARPT FAIR      63  42  46 CALM      30.13S
BOULDER MUN AP FAIR      75  36  23 W5        30.13F
CENTENNIAL     MOCLDY    68  40  35 SE5       30.19F
BROOMFIELD     FAIR      70  36  28 SE5       30.17S
LONGMONT       FAIR      67  48  50 CALM      30.14R
$$

COZ041-046-047-076>085-087-088-270700-
...PIKES PEAK/PALMER DIVIDE AND SOUTHERN FOOTHILLS...

CITY           SKY/WX    TMP DP  RH WIND       PRES   REMARKS
COLO. SPRINGS  FAIR      69  47  45 E12       30.27R
A. F. ACADEMY  FAIR      64  41  42 E6        30.26S
SCHRIEVER AFB  NOT AVBL
ELLICOTT       FAIR     N/A N/A N/A SE16      30.24S
FALCON         NOT AVBL
FORT CARSON    MOCLDY    68  50  52 E5        30.23R
LIMON          NOT AVBL
MONUMENT HILL  FAIR      63  41  45 SW8       30.31F
TRINIDAD       NOT AVBL
$$

COZ042>045-048>051-090-091-270700-
...NORTHEAST COLORADO...

CITY           SKY/WX    TMP DP  RH WIND       PRES   REMARKS
GREELEY ARPT   FAIR      63  54  72 E5        30.13R
AKRON          FAIR      65  54  67 S13       30.12R
BURLINGTON     FAIR      65  58  78 SW7       30.11S
WRAY           NOT AVBL
STERLING       FAIR      72  52  49 E8        30.10R
HOLYOKE        FAIR      66  57  72 CALM      30.11S
FORT MORGAN    FAIR      63  54  73 NE6       30.11S
$$

COZ086-089-092>099-270700-
...SOUTHEAST COLORADO...

CITY           SKY/WX    TMP DP  RH WIND       PRES   REMARKS
PUEBLO         FAIR      77  53  43 E8        30.14R
LA JUNTA       FAIR      74  59  59 E25G33    30.13R
LAMAR          LGT RAIN  66  58  75 SE14G23   30.17R
SPRINGFIELD      N/A     73  62  68 S14       30.13S
$$



USA.gov is the U.S. government's official web portal to all federal, state and local government web resources and services.